SCP
0 0 -0 -0 -0 0 0 -0 -0 0 0 0 0 0 0 0 0 0 0 -0 -0 -0 -0 -0 0 -0 -0 -0 -0 -0 -0 0 -0 0 0 0 0 0 0 0 0 0 0
0 0 -0 0 -0 0 0 -0 0 0 0 0 0 0 0 0 0 0 0 -0 -0 -0 -0 -0 -0 0 0 0 -0 -0 -0 -0 0 0 0 0 0 0 0 0 0 0 0
1 0 0 0 0 0 0 0 0 0 0 0 0 0 0 0 0 0 0 0 0 0 -0 -0 -0 0 0 0 0 0 0 -0 0 0 0 0 0 0 0 0 0 -0 -0
0 -0 0 -0 0 0 0 0 0 0 0 0 0 0 0 0 0 0 0 0 0 0 0 -0 -0 -0 0 0 0 0 0 0 0 0 0 0 -0 0 0 0 0 0 -0
-0 0 -0 0 1 0 0 0 0 0 0 0 0 0 0 0 0 0 0 0 0 0 0 0 0 -0 -0 -0 0 0 0 0 0 0 0 0 0 -0 0 0 -0 -0 -0
0 0 -0 1 0 0 0 0 0 0 0 0 0 0 0 0 0 0 0 0 0 0 0 0 0 0 -0 0 0 0 0 0 0 0 0 0 0 0 -0 0 -0 -0 -0
0 0 0 0 0 0 0 1 0 0 0 0 0 0 0 0 0 0 0 0 0 0 0 0 0 0 0 0 0 0 0 0 0 0 0 0 0 0 0 0 0 -0 -0
0 0 0 0 1 0 0 1 1 0 0 0 0 0 0 0 0 0 0 0 0 0 0 0 0 1 0 0 0 0 0 0 0 0 0 0 0 0 0 0 0 0 -0
0 0 0 0 1 1 1 1 1 0 -0 0 0 0 0 0 0 0 0 0 0 0 0 0 0 1 1 0 0 0 0 0 1 0 0 0 0 0 0 0 0 0 0
0 0 0 0 -0 0 0 0 0 0 -0 1 1 0 0 1 0 0 0 0 0 0 1 0 0 1 1 1 1 1 1 1 1 1 1 1 0 0 0 0 0 0 0
0 0 0 0 0 0 0 0 1 1 0 0 1 2 1 1 1 0 0 0 0 0 1 1 0 0 1 1 1 1 1 1 1 1 1 1 1 1 0 0 0 0 0
1 0 0 0 0 0 0 0 0 0 1 1 1 1 1 2 1 1 0 0 0 0 0 0 1 1 1 1 1 1 2 1 1 1 0 0 0 1 1 1 0 0 1
0 1 0 1 0 0 0 0 0 0 0 0 1 1 1 1 1 1 2 0 0 0 0 0 0 0 0 0 1 1 2 1 0 0 0 0 0 0 0 0 0 0 0
1 1 1 1 1 0 0 1 0 0 0 0 0 0 0 1 1 0 0 0 0 0 0 1 0 1 1 1 0 0 0 0 0 0 0 0 0 0 0 0 0 1 1
1 2 3 2 1 1 1 1 0 0 0 0 0 0 0 0 1 1 0 0 0 1 0 0 1 1 1 1 1 1 0 0 0 0 0 0 0 0 0 0 0 0 0
2 3 2 3 2 1 1 1 1 0 0 0 0 0 0 0 0 0 0 0 1 1 1 0 0 1 1 1 0 0 0 0 0 0 0 0 0 0 0 0 0 0 0
3 2 3 1 2 2 1 1 1 1 1 0 0 0 0 0 0 0 0 0 1 1 1 0 0 1 1 1 0 0 0 0 0 0 0 0 0 0 0 0 0 0 0
4 2 2 1 0 0 1 1 1 1 1 1 1 0 1 0 1 1 1 1 0 1 1 0 0 0 1 1 0 0 0 0 0 0 0 0 0 0 0 0 0 0 0
2 2 2 1 0 1 1 1 1 1 1 1 1 1 1 1 1 1 1 1 1 1 1 0 0 0 0 1 1 0 0 0 0 0 0 0 0 0 0 0 0 0 0
2 2 3 2 1 0 1 1 1 1 1 1 1 1 2 1 1 1 2 1 1 1 1 1 0 0 0 1 1 0 1 0 0 0 0 0 0 0 0 0 0 0 0
2 2 2 2 2 2 1 1 1 1 2 1 2 2 2 1 1 1 1 2 1 1 1 1 0 0 1 1 0 0 0 0 1 0 0 0 0 0 0 0 0 0 0
1 1 1 1 1 1 1 1 1 2 2 2 2 3 2 1 1 1 1 1 1 1 1 1 1 1 2 1 0 0 0 0 0 0 0 0 0 0 0 0 0 0 0
1 1 1 1 0 1 0 1 1 1 2 3 3 4 4 2 1 2 0 0 0 0 0 2 2 1 4 1 1 1 0 1 0 0 1 0 0 0 0 0 0 0 0
1 1 0 0 0 0 0 0 0 2 2 2 3 4 4 3 3 2 2 2 2 2 1 1 1 1 2 1 1 1 1 1 0 0 0 0 0 0 0 0 0 0 0
0 0 0 0 0 0 0 0 0 1 1 2 2 3 2 2 0 0 2 2 2 2 1 1 0 0 0 0 0 1 1 1 0 0 1 0 0 0 0 0 0 0 0
0 0 0 0 0 0 0 0 0 0 0 0 1 0 0 0 0 0 1 0 1 0 1 0 0 0 0 -0 0 0 1 1 1 0 0 0 0 0 0 0 0 0 0
Wind_Speed_500mb
29 36 32 28 23 29 34 33 29 23 20 22 22 24 21 17 13 12 7 16 18 16 10 7 6 5 6 9 9 10 11 12 11 12 13 13 14 14 13 14 15 14 14
24 29 28 28 23 31 30 33 30 23 30 26 28 24 22 20 19 28 12 29 10 16 13 10 9 8 6 7 8 10 11 13 13 13 14 15 16 17 16 17 18 19 19
36 34 35 27 29 26 21 29 40 39 28 25 27 28 26 25 23 22 17 18 11 15 16 12 11 8 9 10 12 13 15 16 17 17 16 17 18 20 21 21 21 20 24
35 27 22 23 28 28 28 22 22 27 26 26 28 29 25 27 26 25 22 19 22 23 27 11 17 17 18 17 16 16 18 20 21 22 22 20 21 23 24 24 24 24 25
45 37 35 34 35 23 28 29 29 27 27 26 27 27 28 27 27 26 25 23 23 19 26 23 17 25 31 31 29 27 27 26 24 24 26 27 28 28 29 29 28 29 31
49 46 36 37 36 33 33 30 33 32 31 28 28 28 26 27 27 28 28 27 27 26 26 26 32 36 30 35 36 38 36 34 32 28 26 27 27 27 28 29 31 33 35
43 54 39 44 47 39 36 41 35 35 31 31 27 28 29 30 33 31 30 30 31 32 30 29 33 33 31 35 35 36 33 36 33 34 34 33 33 33 33 34 35 34 35
47 47 49 43 47 49 50 41 45 32 35 32 35 27 30 30 35 36 35 36 34 33 31 36 36 38 34 33 36 39 43 40 37 37 37 37 38 38 38 38 37 36 37
52 54 53 49 47 43 57 57 51 40 39 36 40 31 22 27 26 34 37 32 36 32 33 38 35 39 37 37 38 38 45 44 39 41 44 45 44 44 43 40 40 39 39
61 58 60 58 59 43 42 50 50 54 50 44 38 37 40 17 10 16 15 28 32 24 38 46 37 34 36 36 40 41 43 51 56 54 49 48 51 51 49 46 45 45 44
68 63 64 64 58 60 53 51 52 54 53 52 50 46 42 39 39 31 34 34 36 24 28 31 28 24 31 32 34 38 42 48 47 40 43 46 47 52 53 52 50 48 49
62 72 69 68 65 59 61 59 59 57 58 52 54 52 52 43 37 33 36 38 38 36 39 46 30 30 30 32 38 46 50 56 61 62 57 54 52 51 53 53 53 49 49
62 67 71 75 72 72 64 62 62 60 56 59 59 57 51 48 51 47 42 36 36 38 41 40 51 46 26 26 34 45 45 48 58 54 56 55 52 50 51 54 55 55 53
62 63 72 67 78 70 68 72 67 63 60 60 60 56 46 48 47 45 41 37 43 46 46 44 39 40 32 47 35 45 48 50 56 53 52 57 54 53 50 49 50 53 54
70 63 69 72 69 70 72 66 67 64 62 60 60 58 55 47 49 51 48 44 44 45 46 39 37 33 44 30 38 45 49 46 51 53 49 48 46 46 46 45 46 46 47
80 69 64 66 68 68 73 75 67 62 68 62 55 58 57 53 52 51 48 42 55 53 50 42 40 38 40 44 33 41 35 43 38 35 38 39 43 44 42 42 41 41 43
76 83 62 70 69 68 71 79 74 63 61 63 63 61 61 58 50 46 44 43 49 52 50 41 35 35 33 40 50 34 34 33 25 40 32 24 27 34 37 40 43 45 48
61 74 73 81 66 65 68 78 74 62 68 63 57 57 58 48 54 53 54 51 49 49 52 45 34 34 33 33 35 34 31 30 26 36 29 28 27 30 35 40 43 44 44
64 57 70 68 63 84 70 68 69 66 64 59 58 54 56 59 53 51 48 47 43 44 45 39 33 29 28 25 24 33 31 30 34 36 32 30 27 29 30 33 34 35 35
47 37 45 43 51 81 81 70 56 62 64 60 56 57 59 60 54 58 54 48 44 41 38 39 32 27 31 29 31 32 33 33 23 30 33 34 37 34 34 34 33 31 33
33 28 35 32 46 55 36 53 57 60 59 65 62 61 62 55 53 49 48 47 45 43 39 42 35 27 28 32 29 28 32 26 32 33 29 29 34 33 33 31 33 32 31
19 21 29 31 38 41 43 50 56 55 59 60 64 68 59 59 59 62 56 49 41 46 44 43 40 34 30 36 33 30 32 31 28 30 25 24 27 32 32 34 33 28 28
22 22 22 28 29 31 45 56 57 63 62 63 66 67 65 52 54 59 59 54 54 51 50 49 46 40 28 34 37 34 35 33 28 21 24 23 24 34 27 41 39 36 35
26 25 22 22 24 28 40 39 43 49 56 64 70 68 72 63 54 56 47 47 56 58 55 54 51 45 31 38 42 39 36 34 34 32 25 30 23 28 35 34 38 40 42
25 26 29 28 29 30 27 29 33 39 41 46 50 62 57 61 64 56 49 45 48 55 53 50 47 48 43 42 47 41 37 34 28 28 29 30 30 31 28 31 35 44 41
16 17 16 20 20 25 33 31 33 28 31 45 48 47 45 52 49 51 52 56 54 52 41 38 43 47 47 48 52 47 44 44 36 30 33 37 23 21 27 31 34 39 42
Wind_Direction_500mb
212 203 200 173 206 232 198 184 187 203 193 214 191 212 203 218 245 223 303 304 294 274 270 261 259 245 256 262 264 263 259 259 260 262 264 263 267 267 266 269 266 267 259
221 212 210 195 207 225 216 184 177 209 197 209 207 211 217 221 225 236 241 273 290 272 257 264 252 246 247 268 273 274 275 274 271 268 267 268 270 273 269 269 270 270 266
223 214 216 199 209 212 222 205 202 196 193 212 212 220 218 223 225 245 252 273 305 288 264 270 260 265 266 268 272 274 279 278 277 276 270 270 273 274 275 272 269 268 270
219 217 218 212 220 211 214 215 222 211 210 213 215 216 226 225 234 240 244 248 267 268 266 274 268 285 287 285 284 284 281 281 277 278 274 272 273 276 277 276 273 267 267
200 205 205 214 211 217 212 211 218 216 221 218 221 222 220 227 234 245 245 249 256 269 293 269 270 291 289 281 283 282 282 280 278 273 272 274 271 274 276 278 274 270 268
203 211 206 213 212 210 216 217 215 219 219 227 224 230 229 234 236 237 241 247 250 254 261 263 277 287 293 293 294 286 273 277 274 270 270 276 279 279 277 278 278 273 273
211 213 207 216 222 207 214 220 217 218 224 219 227 235 236 240 238 237 239 242 247 256 251 249 258 262 268 281 284 288 282 272 274 270 270 273 273 276 278 278 275 275 276
212 215 210 216 231 218 205 211 211 217 227 224 220 227 236 243 243 241 237 239 246 251 254 260 257 258 256 253 271 280 281 279 271 271 272 274 273 270 274 275 273 271 273
217 216 222 210 228 230 221 218 219 218 225 223 223 219 226 243 247 232 227 238 239 242 252 260 254 256 258 265 254 257 272 285 280 273 271 273 274 271 269 270 268 268 272
215 220 220 226 212 226 228 224 218 222 216 220 217 224 230 267 234 232 235 257 251 245 250 247 250 255 260 259 269 266 261 265 268 271 273 272 272 271 268 268 266 267 269
224 217 224 224 226 220 226 221 226 222 225 225 226 219 221 230 235 245 264 279 270 263 263 250 250 250 257 258 265 270 269 276 274 269 269 270 273 268 264 263 263 267 266
230 226 219 227 228 224 225 232 229 231 229 230 227 229 230 222 227 233 246 255 261 263 267 282 246 254 254 261 269 272 267 272 269 270 270 270 268 266 260 258 256 263 264
222 229 227 221 228 231 224 230 231 228 233 232 230 230 235 235 239 237 239 246 258 263 267 266 269 270 269 279 271 266 268 269 273 276 268 268 266 265 261 258 257 259 261
228 226 236 235 229 226 232 231 232 232 231 233 231 231 229 237 246 236 229 236 253 259 261 263 272 266 251 282 265 270 271 277 278 272 271 266 262 260 262 263 260 257 257
226 228 227 239 235 229 228 232 231 231 232 235 236 238 233 229 231 231 230 235 245 258 259 264 276 265 278 272 263 263 270 273 263 269 275 270 261 260 262 264 263 258 257
224 219 217 231 241 230 226 228 226 235 236 233 237 242 240 231 236 240 238 244 240 243 251 253 265 266 268 268 274 277 281 275 286 285 283 272 261 258 261 263 260 258 261
240 234 241 243 235 238 232 231 228 221 239 243 234 236 243 244 238 243 249 247 245 246 245 256 258 263 251 262 274 264 265 273 275 282 279 276 267 257 256 258 259 260 263
240 240 232 232 231 237 238 236 230 225 230 234 240 233 239 242 248 239 239 245 245 248 243 251 248 250 262 268 283 275 265 258 256 274 274 274 270 260 256 255 257 261 263
240 248 241 219 220 235 232 231 233 231 226 233 234 236 247 241 239 241 244 242 242 247 244 241 248 252 257 256 274 280 276 278 272 270 272 269 269 272 272 269 264 264 265
252 254 245 253 221 224 234 234 231 233 231 227 232 237 240 245 241 241 240 242 233 230 236 236 237 241 245 244 254 261 273 281 278 278 284 272 275 273 268 267 266 265 266
249 254 252 258 241 238 239 234 236 234 233 228 224 232 235 231 240 243 238 238 236 236 229 234 233 221 240 258 253 257 261 262 270 268 267 273 288 304 300 261 262 261 263
234 239 251 253 244 244 242 237 235 232 229 229 226 227 225 231 230 234 239 240 238 234 231 230 235 227 230 254 255 251 259 257 262 276 258 261 261 268 282 271 280 271 266
221 232 236 243 241 233 233 237 236 240 241 237 233 230 229 232 233 239 238 238 231 233 236 238 237 228 222 248 260 253 245 249 251 266 262 264 270 269 277 275 279 276 278
225 224 229 232 236 238 234 239 235 231 235 239 238 239 241 239 231 235 234 235 225 227 233 239 250 259 243 248 252 249 249 255 255 249 254 265 265 264 277 283 279 276 286
222 230 235 240 236 236 236 232 230 236 238 239 234 233 236 235 227 232 231 226 224 229 235 244 246 253 258 255 253 257 253 254 259 258 254 247 266 269 267 258 272 275 280
231 222 225 226 226 228 230 238 236 239 248 244 241 239 230 230 240 243 234 235 232 230 233 238 246 255 253 255 256 249 251 255 258 259 254 251 262 276 273 263 258 258 271
Wind_Speed_850mb
29 36 32 28 23 29 34 33 29 23 20 22 22 24 21 17 13 12 7 16 18 16 10 7 6 5 6 9 9 10 11 12 11 12 13 13 14 14 13 14 15 14 14
24 29 28 28 23 31 30 33 30 23 30 26 28 24 22 20 19 28 12 29 10 16 13 10 9 8 6 7 8 10 11 13 13 13 14 15 16 17 16 17 18 19 19
36 34 35 27 29 26 21 29 40 39 28 25 27 28 26 25 23 22 17 18 11 15 16 12 11 8 9 10 12 13 15 16 17 17 16 17 18 20 21 21 21 20 24
35 27 22 23 28 28 28 22 22 27 26 26 28 29 25 27 26 25 22 19 22 23 27 11 17 17 18 17 16 16 18 20 21 22 22 20 21 23 24 24 24 24 25
45 37 35 34 35 23 28 29 29 27 27 26 27 27 28 27 27 26 25 23 23 19 26 23 17 25 31 31 29 27 27 26 24 24 26 27 28 28 29 29 28 29 31
49 46 36 37 36 33 33 30 33 32 31 28 28 28 26 27 27 28 28 27 27 26 26 26 32 36 30 35 36 38 36 34 32 28 26 27 27 27 28 29 31 33 35
43 54 39 44 47 39 36 41 35 35 31 31 27 28 29 30 33 31 30 30 31 32 30 29 33 33 31 35 35 36 33 36 33 34 34 33 33 33 33 34 35 34 35
47 47 49 43 47 49 50 41 45 32 35 32 35 27 30 30 35 36 35 36 34 33 31 36 36 38 34 33 36 39 43 40 37 37 37 37 38 38 38 38 37 36 37
52 54 53 49 47 43 57 57 51 40 39 36 40 31 22 27 26 34 37 32 36 32 33 38 35 39 37 37 38 38 45 44 39 41 44 45 44 44 43 40 40 39 39
61 58 60 58 59 43 42 50 50 54 50 44 38 37 40 17 10 16 15 28 32 24 38 46 37 34 36 36 40 41 43 51 56 54 49 48 51 51 49 46 45 45 44
68 63 64 64 58 60 53 51 52 54 53 52 50 46 42 39 39 31 34 34 36 24 28 31 28 24 31 32 34 38 42 48 47 40 43 46 47 52 53 52 50 48 49
62 72 69 68 65 59 61 59 59 57 58 52 54 52 52 43 37 33 36 38 38 36 39 46 30 30 30 32 38 46 50 56 61 62 57 54 52 51 53 53 53 49 49
62 67 71 75 72 72 64 62 62 60 56 59 59 57 51 48 51 47 42 36 36 38 41 40 51 46 26 26 34 45 45 48 58 54 56 55 52 50 51 54 55 55 53
62 63 72 67 78 70 68 72 67 63 60 60 60 56 46 48 47 45 41 37 43 46 46 44 39 40 32 47 35 45 48 50 56 53 52 57 54 53 50 49 50 53 54
70 63 69 72 69 70 72 66 67 64 62 60 60 58 55 47 49 51 48 44 44 45 46 39 37 33 44 30 38 45 49 46 51 53 49 48 46 46 46 45 46 46 47
80 69 64 66 68 68 73 75 67 62 68 62 55 58 57 53 52 51 48 42 55 53 50 42 40 38 40 44 33 41 35 43 38 35 38 39 43 44 42 42 41 41 43
76 83 62 70 69 68 71 79 74 63 61 63 63 61 61 58 50 46 44 43 49 52 50 41 35 35 33 40 50 34 34 33 25 40 32 24 27 34 37 40 43 45 48
61 74 73 81 66 65 68 78 74 62 68 63 57 57 58 48 54 53 54 51 49 49 52 45 34 34 33 33 35 34 31 30 26 36 29 28 27 30 35 40 43 44 44
64 57 70 68 63 84 70 68 69 66 64 59 58 54 56 59 53 51 48 47 43 44 45 39 33 29 28 25 24 33 31 30 34 36 32 30 27 29 30 33 34 35 35
47 37 45 43 51 81 81 70 56 62 64 60 56 57 59 60 54 58 54 48 44 41 38 39 32 27 31 29 31 32 33 33 23 30 33 34 37 34 34 34 33 31 33
33 28 35 32 46 55 36 53 57 60 59 65 62 61 62 55 53 49 48 47 45 43 39 42 35 27 28 32 29 28 32 26 32 33 29 29 34 33 33 31 33 32 31
19 21 29 31 38 41 43 50 56 55 59 60 64 68 59 59 59 62 56 49 41 46 44 43 40 34 30 36 33 30 32 31 28 30 25 24 27 32 32 34 33 28 28
22 22 22 28 29 31 45 56 57 63 62 63 66 67 65 52 54 59 59 54 54 51 50 49 46 40 28 34 37 34 35 33 28 21 24 23 24 34 27 41 39 36 35
26 25 22 22 24 28 40 39 43 49 56 64 70 68 72 63 54 56 47 47 56 58 55 54 51 45 31 38 42 39 36 34 34 32 25 30 23 28 35 34 38 40 42
25 26 29 28 29 30 27 29 33 39 41 46 50 62 57 61 64 56 49 45 48 55 53 50 47 48 43 42 47 41 37 34 28 28 29 30 30 31 28 31 35 44 41
16 17 16 20 20 25 33 31 33 28 31 45 48 47 45 52 49 51 52 56 54 52 41 38 43 47 47 48 52 47 44 44 36 30 33 37 23 21 27 31 34 39 42
Wind_Direction_850mb
212 203 200 173 206 232 198 184 187 203 193 214 191 212 203 218 245 223 303 304 294 274 270 261 259 245 256 262 264 263 259 259 260 262 264 263 267 267 266 269 266 267 259
221 212 210 195 207 225 216 184 177 209 197 209 207 211 217 221 225 236 241 273 290 272 257 264 252 246 247 268 273 274 275 274 271 268 267 268 270 273 269 269 270 270 266
223 214 216 199 209 212 222 205 202 196 193 212 212 220 218 223 225 245 252 273 305 288 264 270 260 265 266 268 272 274 279 278 277 276 270 270 273 274 275 272 269 268 270
219 217 218 212 220 211 214 215 222 211 210 213 215 216 226 225 234 240 244 248 267 268 266 274 268 285 287 285 284 284 281 281 277 278 274 272 273 276 277 276 273 267 267
200 205 205 214 211 217 212 211 218 216 221 218 221 222 220 227 234 245 245 249 256 269 293 269 270 291 289 281 283 282 282 280 278 273 272 274 271 274 276 278 274 270 268
203 211 206 213 212 210 216 217 215 219 219 227 224 230 229 234 236 237 241 247 250 254 261 263 277 287 293 293 294 286 273 277 274 270 270 276 279 279 277 278 278 273 273
211 213 207 216 222 207 214 220 217 218 224 219 227 235 236 240 238 237 239 242 247 256 251 249 258 262 268 281 284 288 282 272 274 270 270 273 273 276 278 278 275 275 276
212 215 210 216 231 218 205 211 211 217 227 224 220 227 236 243 243 241 237 239 246 251 254 260 257 258 256 253 271 280 281 279 271 271 272 274 273 270 274 275 273 271 273
217 216 222 210 228 230 221 218 219 218 225 223 223 219 226 243 247 232 227 238 239 242 252 260 254 256 258 265 254 257 272 285 280 273 271 273 274 271 269 270 268 268 272
215 220 220 226 212 226 228 224 218 222 216 220 217 224 230 267 234 232 235 257 251 245 250 247 250 255 260 259 269 266 261 265 268 271 273 272 272 271 268 268 266 267 269
224 217 224 224 226 220 226 221 226 222 225 225 226 219 221 230 235 245 264 279 270 263 263 250 250 250 257 258 265 270 269 276 274 269 269 270 273 268 264 263 263 267 266
230 226 219 227 228 224 225 232 229 231 229 230 227 229 230 222 227 233 246 255 261 263 267 282 246 254 254 261 269 272 267 272 269 270 270 270 268 266 260 258 256 263 264
222 229 227 221 228 231 224 230 231 228 233 232 230 230 235 235 239 237 239 246 258 263 267 266 269 270 269 279 271 266 268 269 273 276 268 268 266 265 261 258 257 259 261
228 226 236 235 229 226 232 231 232 232 231 233 231 231 229 237 246 236 229 236 253 259 261 263 272 266 251 282 265 270 271 277 278 272 271 266 262 260 262 263 260 257 257
226 228 227 239 235 229 228 232 231 231 232 235 236 238 233 229 231 231 230 235 245 258 259 264 276 265 278 272 263 263 270 273 263 269 275 270 261 260 262 264 263 258 257
224 219 217 231 241 230 226 228 226 235 236 233 237 242 240 231 236 240 238 244 240 243 251 253 265 266 268 268 274 277 281 275 286 285 283 272 261 258 261 263 260 258 261
240 234 241 243 235 238 232 231 228 221 239 243 234 236 243 244 238 243 249 247 245 246 245 256 258 263 251 262 274 264 265 273 275 282 279 276 267 257 256 258 259 260 263
240 240 232 232 231 237 238 236 230 225 230 234 240 233 239 242 248 239 239 245 245 248 243 251 248 250 262 268 283 275 265 258 256 274 274 274 270 260 256 255 257 261 263
240 248 241 219 220 235 232 231 233 231 226 233 234 236 247 241 239 241 244 242 242 247 244 241 248 252 257 256 274 280 276 278 272 270 272 269 269 272 272 269 264 264 265
252 254 245 253 221 224 234 234 231 233 231 227 232 237 240 245 241 241 240 242 233 230 236 236 237 241 245 244 254 261 273 281 278 278 284 272 275 273 268 267 266 265 266
249 254 252 258 241 238 239 234 236 234 233 228 224 232 235 231 240 243 238 238 236 236 229 234 233 221 240 258 253 257 261 262 270 268 267 273 288 304 300 261 262 261 263
234 239 251 253 244 244 242 237 235 232 229 229 226 227 225 231 230 234 239 240 238 234 231 230 235 227 230 254 255 251 259 257 262 276 258 261 261 268 282 271 280 271 266
221 232 236 243 241 233 233 237 236 240 241 237 233 230 229 232 233 239 238 238 231 233 236 238 237 228 222 248 260 253 245 249 251 266 262 264 270 269 277 275 279 276 278
225 224 229 232 236 238 234 239 235 231 235 239 238 239 241 239 231 235 234 235 225 227 233 239 250 259 243 248 252 249 249 255 255 249 254 265 265 264 277 283 279 276 286
222 230 235 240 236 236 236 232 230 236 238 239 234 233 236 235 227 232 231 226 224 229 235 244 246 253 258 255 253 257 253 254 259 258 254 247 266 269 267 258 272 275 280
231 222 225 226 226 228 230 238 236 239 248 244 241 239 230 230 240 243 234 235 232 230 233 238 246 255 253 255 256 249 251 255 258 259 254 251 262 276 273 263 258 258 271